Simultaneous Nadir Overpasses (SNOs) Predictions

Prediction of SNOs between METOP-A and TERRA Satellite Orbit:

Table of predicted SNOs for the next 14.0 days since TLE Epoch: 11/28/2015
Index Date (METOP-A) Time (METOP-A) Lat,Lon (METOP-A) SZA (METOP-A ) Date (TERRA) Time (TERRA) Lat,Lon (TERRA) SZA (TERRA ) Distance(km) Time Diff (sec)
1 11/29/2015 18:19:21 -81.29, 132.29 74.26 11/29/2015 18:19:41 -81.29, 132.17 74.26 2.04 20
2 11/29/2015 19:10:01 81.29, -60.25 105.77 11/29/2015 19:09:07 81.29, -60.10 105.76 2.52 54
3 12/02/2015 13:53:46 -81.29,-161.41 73.86 12/02/2015 13:53:54 -81.29,-161.24 73.83 3.04 8
4 12/02/2015 14:44:25 81.29, 6.42 106.21 12/02/2015 14:43:20 81.30, 6.46 106.19 0.97 65
5 12/05/2015 08:37:30 81.28, 97.35 106.46 12/05/2015 08:38:41 81.28, 97.26 106.48 1.51 71
6 12
